Weather History for Poplar Bluff, MO

Change the Weather History Date:

Friday, January 4, 2013

  Actual Average Record
Temperature  
Mean Temperature 34 °F -  
Max Temperature 46 °F 42 °F 75 °F (1955)
Min Temperature 23 °F 24 °F -2 °F (1928)
Degree Days  
Heating Degree Days 30    
Moisture  
Dew Point 23 °F    
Average Humidity 70    
Maximum Humidity 88    
Minimum Humidity 34    
Precipitation  
Precipitation 0.00 in - - ()
Sea Level Pressure  
Sea Level Pressure 30.42 in    
Wind  
Wind Speed 2 mph (SW)    
Max Wind Speed 12 mph    
Max Gust Speed 17 mph    
Visibility 10 miles    
Events      
Averages and records for this station are not official NWS values.
T = Trace of Precipitation, MM = Missing Value Source: NWS Daily Summary

Daily Weather History Graph

Daily Weather History Graph

Search for Another Location

Airport:

Trip Planner

Search our weather history database for the weather conditions in past years. The results will help you decide how hot, cold, wet, or windy it might be!

Date:

Astronomy

Jan. 04, 2013 Rise Set
Actual Time 7:14 AM CST 4:58 PM CST
Civil Twilight 6:45 AM CST 5:27 PM CST
Nautical Twilight 6:13 AM CST 5:59 PM CST
Astronomical Twilight 5:42 AM CST 6:31 PM CST
Moon No Moon Rise 11:09 AM CST (1/4)
Length of Visible Light 10h 41m
Length of Day
9h 44m
Waning Gibbous, 55% of the Moon is Illuminated
Jan 4
Waning Gibbous
Jan 4
Last Quarter
Jan 11
New
Jan 18
First Quarter
Jan 26
Full

Hourly Weather History & Observations

Time (CST) Temp. Windchill Dew Point Humidity Pressure Visibility Wind Dir Wind Speed Gust Speed Precip Events Conditions
12:53 AM 26.1 °F - 21.9 °F 84% 30.42 in 6.0 mi Calm Calm - N/A   Clear
1:53 AM 25.0 °F - 21.0 °F 85% 30.43 in 8.0 mi Calm Calm - N/A   Clear
2:53 AM 24.1 °F - 21.0 °F 88% 30.43 in 9.0 mi Calm Calm - N/A   Clear
3:53 AM 25.0 °F - 21.9 °F 88% 30.43 in 10.0 mi Calm Calm - N/A   Mostly Cloudy
4:53 AM 24.1 °F - 19.9 °F 84% 30.42 in 10.0 mi Calm Calm - N/A   Clear
5:53 AM 23.0 °F - 19.9 °F 88% 30.44 in 10.0 mi Calm Calm - N/A   Clear
6:53 AM 23.0 °F - 19.0 °F 85% 30.45 in 10.0 mi Calm Calm - N/A   Clear
7:53 AM 24.1 °F - 19.9 °F 84% 30.47 in 10.0 mi Calm Calm - N/A   Clear
8:53 AM 30.0 °F - 24.1 °F 79% 30.49 in 10.0 mi Calm Calm - N/A   Scattered Clouds
9:53 AM 36.0 °F - 27.0 °F 70% 30.49 in 10.0 mi Calm Calm - N/A   Clear
10:53 AM 43.0 °F 36.8 °F 26.1 °F 51% 30.48 in 10.0 mi WSW 11.5 mph - 0.00 in   Clear
11:53 AM 45.0 °F 40.1 °F 27.0 °F 49% 30.44 in 10.0 mi West 9.2 mph 17.3 mph N/A   Clear
12:53 PM 46.0 °F 41.0 °F 26.1 °F 46% 30.42 in 10.0 mi SW 10.4 mph - N/A   Clear
1:53 PM 46.0 °F 43.9 °F 23.0 °F 40% 30.40 in 10.0 mi SW 4.6 mph - N/A   Clear
2:53 PM 46.9 °F - 19.9 °F 34% 30.40 in 10.0 mi Variable 4.6 mph - N/A   Clear
3:53 PM 45.0 °F 40.6 °F 21.9 °F 40% 30.40 in 10.0 mi SW 8.1 mph - 0.00 in   Clear
4:53 PM 41.0 °F 37.1 °F 26.1 °F 55% 30.40 in 10.0 mi SSW 5.8 mph - N/A   Clear
5:53 PM 39.0 °F 35.7 °F 24.1 °F 55% 30.40 in 10.0 mi SSW 4.6 mph - N/A   Clear
6:53 PM 35.1 °F 30.1 °F 25.0 °F 67% 30.41 in 10.0 mi SSW 5.8 mph - N/A   Clear
7:53 PM 33.1 °F 27.7 °F 26.1 °F 75% 30.41 in 10.0 mi SSW 5.8 mph - N/A   Clear
8:53 PM 33.1 °F 30.0 °F 26.1 °F 75% 30.40 in 10.0 mi SSW 3.5 mph - N/A   Clear
9:53 PM 28.9 °F - 25.0 °F 85% 30.40 in 10.0 mi Calm Calm - N/A   Clear
10:53 PM 30.0 °F - 26.1 °F 85% 30.39 in 10.0 mi Calm Calm - N/A   Clear
11:53 PM 28.0 °F 24.2 °F 24.1 °F 85% 30.38 in 10.0 mi North 3.5 mph - N/A   Clear